OSCAR 7 (AO-7) 1 07530U 74089B 26037.52649028 -.00000047 00000+0 -53943-5 0 9998 2 07530 101.9972 49.3820 0012261 21.8544 96.2358 12.53695644344142 PHASE 3B (AO-10) 1 14129U 83058B 26036.76544083 .00000196 00000+0 00000+0 0 9999 2 14129 25.9610 241.7283 6056240 79.1046 339.8337 2.05870291292787 UOSAT 2 (UO-11) 1 14781U 84021B 26036.85138238 .00003200 00000+0 33425-3 0 9995 2 14781 97.7897 4.0571 0006025 256.2903 103.7644 14.90386170237564 LUSAT (LO-19) 1 20442U 90005G 26037.01483928 .00000209 00000+0 91313-4 0 9990 2 20442 98.8950 55.1442 0010800 227.2789 132.7486 14.34074330883593 EYESAT A (AO-27) 1 22825U 93061C 26036.75106129 .00000193 00000+0 90537-4 0 9996 2 22825 98.7051 104.1259 0009342 122.7781 237.4303 14.30902163688204 ITAMSAT (IO-26) 1 22826U 93061D 26037.11899557 .00000201 00000+0 92613-4 0 9999 2 22826 98.6997 104.3987 0009995 107.3909 252.8368 14.31325395688566 RADIO ROSTO (RS15) 1 23439U 94085A 26037.56566110 -.00000083 00000+0 -11413-2 0 9999 2 23439 64.8163 154.4680 0151537 27.9589 332.9375 11.27583066281171 JAS-2 (FO-29) 1 24278U 96046B 26037.52111659 -.00000012 00000+0 20786-4 0 9996 2 24278 98.5422 264.1509 0350845 75.4960 288.4826 13.53266605455490 TECHSAT 1B (GO-32) 1 25397U 98043D 26037.41110485 .00000131 00000+0 76946-4 0 9992 2 25397 98.9987 26.9272 0000749 180.1113 180.0065 14.24397001432719 ISS (ZARYA) 1 25544U 98067A 26037.21207385 .00012979 00000+0 24775-3 0 9991 2 25544 51.6316 227.9611 0011199 69.2605 290.9582 15.48432747551451 PCSAT (NO-44) 1 26931U 01043C 26037.47600764 .00000243 00000+0 12158-3 0 9999 2 26931 67.0487 222.3369 0007044 266.3453 93.6844 14.31893933271734 SAUDISAT 1C (SO-50) 1 27607U 02058C 26037.38931799 .00002593 00000+0 32394-3 0 9996 2 27607 64.5527 173.5643 0074446 286.3350 72.9579 14.82655989245067 CUTE-1 (CO-55) 1 27844U 03031E 26037.51237181 .00000480 00000+0 22713-3 0 9997 2 27844 98.6774 47.7009 0009210 198.9917 161.0919 14.24239396173079 CUBESAT XI-IV (CO-57) 1 27848U 03031J 26037.43584384 .00000401 00000+0 19526-3 0 9993 2 27848 98.6804 47.4430 0008771 218.3617 141.6939 14.23538453172774 MOZHAETS 4 (RS22) 1 27939U 03042A 26037.55138562 .00002091 00000+0 33242-3 0 9990 2 27939 98.3399 218.2531 0010764 328.3367 123.3960 14.73163126196313 CUBESAT XI-V 1 28895U 05043F 26037.38433641 .00002857 00000+0 46108-3 0 9997 2 28895 98.2781 190.4312 0013188 259.5978 100.3742 14.72176382 82508 CUTE-1.7+APD II (CO-65) 1 32785U 08021C 26037.46322045 .00008555 00000+0 56064-3 0 9996 2 32785 97.8167 16.3994 0011227 108.9940 251.2504 15.07909269965480 SEEDS II (CO-66) 1 32791U 08021J 26037.42930365 .00025036 00000+0 92558-3 0 9990 2 32791 97.7495 29.6032 0005385 69.2409 290.9405 15.27690520967297 YUBILEINY (RS30) 1 32953U 08025A 26037.56265947 .00000077 00000+0 48174-3 0 9999 2 32953 82.4988 76.6974 0018517 234.2548 125.6811 12.43175002803462 KKS-1 (KISEKI) 1 33499U 09002H 26037.42286985 .00002554 00000+0 32319-3 0 9997 2 33499 98.1188 317.8461 0008073 5.3625 354.7672 14.82701852916811 SWISSCUBE 1 35932U 09051B 26037.20498355 .00001835 00000+0 37445-3 0 9993 2 35932 98.4129 302.7853 0005535 260.9477 99.1097 14.62167394870012 BEESAT-1 1 35933U 09051C 26037.21670984 .00001553 00000+0 32335-3 0 9995 2 35933 98.4058 302.7004 0004064 278.7991 81.2749 14.61455324870058 ITUPSAT1 1 35935U 09051E 26037.16228930 .00001405 00000+0 30158-3 0 9998 2 35935 98.4147 301.9709 0006341 290.0402 70.0115 14.60196273869613 XIWANG-1 (HOPE-1) 1 36122U 09072B 26037.52524677 .00000168 00000+0 55526-3 0 9998 2 36122 100.3868 353.5458 0007510 167.7509 192.3788 13.16435743775816 O/OREOS (USA 219) 1 37224U 10062C 26036.97610069 .00004654 00000+0 45114-3 0 9998 2 37224 71.9721 17.4114 0016607 310.5055 49.4667 14.93077499 97054 JUGNU 1 37839U 11058B 26037.24039310 .00000549 00000+0 14726-3 0 9995 2 37839 19.9623 23.9494 0018781 70.6819 52.3180 14.13726855740472 SRMSAT 1 37841U 11058D 26037.29582517 .00000512 00000+0 13390-3 0 9991 2 37841 19.9712 131.7097 0011564 203.5607 189.1597 14.11535751739307 STRAND-1 1 39090U 13009E 26037.44161493 .00000519 00000+0 18917-3 0 9997 2 39090 98.3855 220.9150 0007590 260.8148 99.2180 14.37066175678280 ZACUBE-1 (TSHEPISOSAT) 1 39417U 13066B 26037.31340967 .00009735 00000+0 77506-3 0 9992 2 39417 97.8175 358.9897 0040926 328.4183 31.4584 14.99930504661105 GOMX-1 1 39430U 13066Q 26037.56078365 .00003724 00000+0 56557-3 0 9999 2 39430 97.6577 246.2052 0130536 136.5466 224.6119 14.68963467650732 CUBEBUG-2 (LO-74) 1 39440U 13066AA 26037.25983929 .00006959 00000+0 65825-3 0 9998 2 39440 97.8774 345.9045 0060765 100.9771 259.8292 14.92574640657459 FUNCUBE-1 (AO-73) 1 39444U 13066AE 26037.37949336 .00013644 00000+0 89441-3 0 9998 2 39444 97.8148 6.4139 0035951 289.8815 69.8539 15.07283521659947 UWE-3 1 39446U 13066AG 26036.82439138 .00010655 00000+0 93494-3 0 9995 2 39446 97.8559 352.2552 0051670 39.3948 321.1012 14.95763546657930 UNISAT-6 1 40012U 14033C 26037.39379491 .00005823 00000+0 63742-3 0 9993 2 40012 97.7673 192.6223 0046542 138.6204 221.8553 14.87375463626714 DUCHIFAT-1 1 40021U 14033M 26037.08749906 .00065795 00000+0 13333-2 0 9995 2 40021 98.0698 79.8807 0006156 175.2197 184.9110 15.46155365635388 QB50P1 1 40025U 14033R 26036.89899582 .00015867 00000+0 83293-3 0 9991 2 40025 98.0996 39.0574 0007892 325.8248 34.2474 15.15798611633123 LILACSAT-2 1 40908U 15049K 26037.47489574 .00028509 00000+0 56765-3 0 9991 2 40908 97.4855 69.6368 0007902 21.3437 338.8140 15.46846409575514 FOX-1A (AO-85) 1 40967U 15058D 26037.18558849 .00004765 00000+0 43338-3 0 9996 2 40967 64.7772 325.8322 0130397 108.4131 253.1210 14.90101979 94049 CAS-2T & KS-1Q 1 41847U 16066G 26037.18743039 .00002613 00000+0 37463-3 0 9993 2 41847 98.3945 114.3764 0343360 166.7614 194.2877 14.44353790485881 RADFXSAT (FOX-1B) 1 43017U 17073E 26036.06900093 .00012056 00000+0 54921-3 0 9994 2 43017 97.4898 266.0622 0159099 64.1463 297.6076 15.10127368445434 DIWATA-2B 1 43678U 18084H 26037.50041124 .00003272 00000+0 26950-3 0 9992 2 43678 98.1069 228.2551 0008462 223.9811 136.0739 14.99808722396629 ES'HAIL 2 1 43700U 18090A 26037.20308822 .00000144 00000+0 00000+0 0 9992 2 43700 0.0132 116.1235 0002381 247.7407 231.3279 1.00270973 26369 FOX-1CLIFF (AO-95) 1 43770U 18099N 26037.12615980 .00018282 00000+0 76568-3 0 9993 2 43770 97.4571 98.0317 0010617 90.5311 269.7143 15.23545043393243 ITASAT 1 43786U 18099AE 26037.12130193 .00010854 00000+0 54861-3 0 9997 2 43786 97.4230 91.2908 0014672 90.2664 270.0251 15.17138289393020 JY1SAT (JO-97) 1 43803U 18099AX 26037.15590125 .00024206 00000+0 85749-3 0 9990 2 43803 97.4318 99.8497 0006529 27.5013 332.6571 15.29090147393570 UWE-4 1 43880U 18111E 26037.33302485 .00036263 00000+0 97075-3 0 9991 2 43880 97.5859 320.5384 0011954 77.8863 282.3720 15.37872321390614 TIANYAN 01 1 44881U 19093C 26037.51539914 .00001939 00000+0 22611-3 0 9998 2 44881 97.7671 112.8826 0014183 151.2558 208.9442 14.86269977332002 RS-44 & BREEZE-KM R/B 1 44909U 19096E 26037.05379586 .00000018 00000+0 18384-4 0 9998 2 44909 82.5169 66.8471 0218637 91.0035 271.6122 12.79746816285575 SALSAT 1 46495U 20068K 26037.49818247 .00012163 00000+0 45365-3 0 9993 2 46495 97.8836 32.8415 0011717 48.4564 311.7677 15.27522102295399 XW-3 (CAS-9) 1 50466U 21131B 26037.54030323 .00000749 00000+0 24555-3 0 9990 2 50466 98.4995 130.6709 0005058 123.5872 236.5800 14.41208220216297 GREENCUBE (IO-117) 1 53109U 22080E 26036.82714451 -.00000003 00000+0 00000+0 0 9991 2 53109 70.1644 343.9250 0009171 317.3784 42.6164 6.42583143 83627 UMKA 1 (RS40S) 1 57172U 23091G 26037.28866609 .00009548 00000+0 45698-3 0 9990 2 57172 97.5244 96.5216 0012509 210.5366 149.5142 15.19112427144125 CUBESX-HSE 3 (RS42S) 1 57178U 23091N 26037.52466767 .00025425 00000+0 94018-3 0 9996 2 57178 97.5272 101.6911 0011464 188.8035 171.3004 15.27628887144458 MONITOR-3 (RS58S) 1 57180U 23091Q 26037.48602639 .00020923 00000+0 83961-3 0 9997 2 57180 97.5266 100.1315 0012177 194.1147 165.9752 15.24940958144353 MONITOR-4 (RS57S) 1 57182U 23091S 26037.53845855 .00022067 00000+0 88310-3 0 9998 2 57182 97.5259 100.1471 0012158 194.5888 165.5000 15.25021610144364 MONITOR-2 (RS39S) 1 57184U 23091U 26037.48786470 .00010283 00000+0 51502-3 0 9991 2 57184 97.5268 96.6172 0010988 200.2188 159.8611 15.17523468144127 SVYATOBOR 1 (RS60S) 1 57187U 23091X 26037.52137108 .00017980 00000+0 74055-3 0 9996 2 57187 97.5273 100.7339 0009817 184.4135 175.7017 15.24122654144398 VIZARD-METEO (RS38S) 1 57189U 23091Z 26037.54472074 .00031686 00000+0 10379-2 0 9991 2 57189 97.5259 104.7400 0008283 168.9446 191.1979 15.31566648144667 NANOZOND 1 (RS49S) 1 57190U 23091AA 26037.49274892 .00226950 00000+0 23084-2 0 9992 2 57190 97.5154 115.4956 0003302 165.2695 194.8661 15.64423335145380 POLYTECH-UNIVERSE 3 (R*) 1 57191U 23091AB 26037.53154551 .00010261 00000+0 51066-3 0 9995 2 57191 97.5240 96.1692 0015040 219.7442 140.2691 15.17699771144122 UTMN 2 (RS27S) 1 57203U 23091AP 26037.35475569 .00024219 00000+0 87247-3 0 9992 2 57203 97.5262 102.9911 0008852 174.4182 185.7157 15.28525298144531 KUZGTU 1 (RS47S) 1 57217U 23091AV 26037.54373829 .00023873 00000+0 91155-3 0 9992 2 57217 97.5247 100.8905 0011535 191.7413 168.3558 15.26579688144420 SONATE-2 1 59112U 24043Q 26036.96234896 .00043281 00000+0 80026-3 0 9991 2 59112 97.5360 180.4379 0008229 328.0393 32.0357 15.48897459107515 MESAT1 1 60209U 24125G 26037.04494149 .00051609 00000+0 89023-3 0 9999 2 60209 97.2484 252.6145 0013249 348.4823 11.6124 15.50772415 89165 OOV-CUBE (TUBSAT-30) 1 60240U 24128F 26037.20960145 .00004346 00000+0 33438-3 0 9994 2 60240 61.9968 322.0492 0056644 105.7950 254.9396 15.02022210 86431 COLIBRI-S (RS67S) 1 61746U 24199M 26037.54940684 .00037102 00000+0 86846-3 0 9994 2 61746 97.3202 270.5813 0011050 42.2055 318.0041 15.41971193117243 HORS 3 (RS81S) 1 61753U 24199U 26037.53864689 .00050929 00000+0 10301-2 0 9995 2 61753 97.3172 271.4732 0009448 47.5952 312.6096 15.46249722117318 HORS 4 (RS82S) 1 61754U 24199V 26037.52939683 .00059914 00000+0 11139-2 0 9995 2 61754 97.3145 272.0488 0009376 46.6963 313.5068 15.48650753117351 HORIZON (RS59S) 1 61757U 24199Y 26037.56770840 .00165209 00000+0 17957-2 0 9999 2 61757 97.3136 275.1547 0007678 33.5307 326.6436 15.62895994117554 ARCTICSAT 1 (RS74S) 1 61762U 24199AD 26037.57370889 .00135229 00000+0 16476-2 0 9999 2 61762 97.3152 274.8459 0007708 30.5756 329.5949 15.60020036117539 SIT-2086 1 61764U 24199AF 26037.53985962 .00037843 00000+0 77539-3 0 9992 2 61764 97.3168 272.2306 0008705 32.2333 327.9447 15.45944041114209 RUZAEVKA 390 (RS44S) 1 61766U 24199AH 26036.28668939 .00313717 00000+0 17151-2 0 9997 2 61766 97.3049 276.2746 0005522 43.7248 316.4455 15.78991128114371 HYPERVIEW 1G (RS66S) 1 61772U 24199AP 26037.56303896 .00104075 00000+0 15916-2 0 9996 2 61772 97.3141 272.9103 0010819 43.4545 316.7560 15.53961795114261 ALTAIR (RS65S) 1 61779U 24199AW 26037.53298766 .00021209 00000+0 63970-3 0 9990 2 61779 97.3218 267.8336 0015305 58.8113 301.4628 15.34200134117069 ASRTU-1 (AO-123) 1 61781U 24199AY 26037.56015913 .00017259 00000+0 53454-3 0 9993 2 61781 97.3197 267.4388 0015836 59.8635 300.4175 15.33392083113897 TUSUR GO (RS78S) 1 61782U 24199AZ 26037.52023194 .00178195 00000+0 19420-2 0 9991 2 61782 97.3093 274.1269 0009191 43.5052 316.6930 15.62771841114340 SAMSAT-IONOSPHERE (RS7*) 1 61784U 24199BB 26037.51798019 .00058591 00000+0 11491-2 0 9994 2 61784 97.3164 271.2032 0012477 48.2794 311.9521 15.47075783117299 RTU MIREA 1 (RS51S) 1 61785U 24199BC 26037.55102192 .00064506 00000+0 11961-2 0 9995 2 61785 97.3159 271.6012 0012049 46.2141 314.0104 15.48675911114170 TEVEL2-4 1 63213U 25052D 26036.65159615 .00031897 00000+0 11130-2 0 9999 2 63213 97.4060 293.1828 0002017 165.3916 194.7383 15.29543141 49976 TEVEL2-5 1 63214U 25052E 26037.51073419 .00025299 00000+0 88588-3 0 9994 2 63214 97.4060 294.0172 0002065 162.9185 197.2125 15.29477333 50101 TEVEL2-6 1 63215U 25052F 26036.66915014 .00031727 00000+0 11121-2 0 9997 2 63215 97.4062 293.1655 0001945 169.0144 191.1139 15.29396215 49979 TEVEL2-1 1 63217U 25052H 26036.13547139 .00025866 00000+0 91958-3 0 9994 2 63217 97.4039 292.3974 0001531 191.9962 168.1242 15.28978078 49884 TEVEL2-3 1 63218U 25052J 26036.65729192 .00031347 00000+0 11108-2 0 9992 2 63218 97.4037 292.9258 0001446 188.1596 171.9621 15.29042901 49960 TEVEL2-2 1 63219U 25052K 26036.65972133 .00030493 00000+0 10818-2 0 9996 2 63219 97.4039 292.9201 0001530 190.7895 169.3313 15.29012883 49961 TEVEL2-9 1 63237U 25052AD 26036.67873678 .00028638 00000+0 10674-2 0 9990 2 63237 97.4098 292.5625 0004617 243.8232 116.2533 15.27391755 49923 TEVEL2-7 1 63238U 25052AE 26037.15742634 .00023265 00000+0 87277-3 0 9997 2 63238 97.4102 292.9990 0004748 238.9425 121.1348 15.27220595 49992 TEVEL2-8 1 63239U 25052AF 26036.63979637 .00028411 00000+0 10660-2 0 9994 2 63239 97.4101 292.4667 0004676 243.9521 116.1237 15.27172841 49914 HADES-ICM 1 63492U 25052BN 26036.66560114 .00141387 00000+0 25651-2 0 9998 2 63492 97.4003 296.1435 0003805 209.7437 150.3598 15.49070261 50176 INNOSAT 16 (RS92S7) 1 64878U 25155C 26037.26414722 .00009909 00000+0 41568-3 0 9990 2 64878 97.4416 5.1000 0008832 291.1672 68.8621 15.23655362 60725 GEOSCAN 6 (RS92S6) 1 64879U 25155D 26037.27153377 .00016034 00000+0 60488-3 0 9997 2 64879 97.4416 5.7187 0005828 285.9839 74.0757 15.27110167 60762 GEOSCAN 1 (RS92S1) 1 64880U 25155E 26037.24988663 .00018041 00000+0 67257-3 0 9991 2 64880 97.4416 5.7528 0005722 286.9065 73.1547 15.27477067 60760 239ALFEROV (RS61S) 1 64881U 25155F 26037.23877145 .00021112 00000+0 75655-3 0 9997 2 64881 97.4423 5.9462 0005147 286.7856 73.2818 15.28748466 60773 GEOSCAN 2 (RS92S2) 1 64890U 25155Q 26037.46499287 .00016930 00000+0 62553-3 0 9994 2 64890 97.4414 6.0641 0004986 266.7312 93.3357 15.27789451 60802 GEOSCAN 5 (RS92S5) 1 64891U 25155R 26037.45215416 .00021248 00000+0 75344-3 0 9994 2 64891 97.4416 6.2450 0004096 298.2498 61.8328 15.29098214 60813 GEOSCAN 4 (RS92S4) 1 64892U 25155S 26037.44651067 .00021193 00000+0 74945-3 0 9995 2 64892 97.4419 6.2579 0004065 299.2271 60.8562 15.29186928 60814 GEOSCAN 3 (RS92S3) 1 64893U 25155T 26037.44898412 .00024890 00000+0 85022-3 0 9998 2 64893 97.4413 6.3969 0003713 304.9462 55.1430 15.30284665 60829 INNOSAT 3 (RS92S0) 1 64894U 25155U 26037.50777373 .00040207 00000+0 12085-2 0 9996 2 64894 97.4388 6.9034 0002619 318.0645 42.0397 15.34289739 60865